Year,Month,Day,Hour,Minute,Value (Times are PST for temperature in C)
2019,10,25,00,00,35.80
2019,10,25,00,01,35.80
2019,10,25,00,02,35.80
2019,10,25,00,03,35.80
2019,10,25,00,04,35.80
2019,10,25,00,05,35.90
2019,10,25,00,06,35.90
2019,10,25,00,07,35.90
2019,10,25,00,08,35.90
2019,10,25,00,09,35.90
2019,10,25,00,10,35.90
2019,10,25,00,11,35.90
2019,10,25,00,12,35.90
2019,10,25,00,13,35.90
2019,10,25,00,14,36.00
2019,10,25,00,15,36.00
2019,10,25,00,16,36.10
2019,10,25,00,17,36.10
2019,10,25,00,18,36.10
2019,10,25,00,19,36.10
2019,10,25,00,20,36.10
2019,10,25,00,21,36.10
2019,10,25,00,22,36.10
2019,10,25,00,23,36.10
2019,10,25,00,24,36.10
2019,10,25,00,25,36.10
2019,10,25,00,26,36.10
2019,10,25,00,27,36.10
2019,10,25,00,28,36.10
2019,10,25,00,29,36.10
2019,10,25,00,30,36.10
2019,10,25,00,31,36.10
2019,10,25,00,32,36.10
2019,10,25,00,33,36.10
2019,10,25,00,34,36.10
2019,10,25,00,35,36.10
2019,10,25,00,36,36.00
2019,10,25,00,37,36.00
2019,10,25,00,38,36.00
2019,10,25,00,39,36.00
2019,10,25,00,40,36.00
2019,10,25,00,41,36.00
2019,10,25,00,42,36.00
2019,10,25,00,43,36.00
2019,10,25,00,44,36.00
2019,10,25,00,45,36.00
2019,10,25,00,46,36.00
2019,10,25,00,47,36.00
2019,10,25,00,48,36.10
2019,10,25,00,49,36.10
2019,10,25,00,50,36.10
2019,10,25,00,51,36.10
2019,10,25,00,52,36.10
2019,10,25,00,53,36.10
2019,10,25,00,54,36.20
2019,10,25,00,55,36.20
2019,10,25,00,56,36.20
2019,10,25,00,57,36.20
2019,10,25,00,58,36.20
2019,10,25,00,59,36.20
2019,10,25,01,00,36.20
2019,10,25,01,01,36.20
2019,10,25,01,02,36.20
2019,10,25,01,03,36.10
2019,10,25,01,04,36.10
2019,10,25,01,05,36.10
2019,10,25,01,06,36.10
2019,10,25,01,07,36.10
2019,10,25,01,08,36.10
2019,10,25,01,09,36.10
2019,10,25,01,10,36.10
2019,10,25,01,11,36.10
2019,10,25,01,12,36.10
2019,10,25,01,13,36.10
2019,10,25,01,14,36.10
2019,10,25,01,15,36.10
2019,10,25,01,16,36.10
2019,10,25,01,17,36.10
2019,10,25,01,18,36.10
2019,10,25,01,19,36.10
2019,10,25,01,20,36.10
2019,10,25,01,21,36.00
2019,10,25,01,22,36.00
2019,10,25,01,23,36.00
2019,10,25,01,24,36.00
2019,10,25,01,25,35.90
2019,10,25,01,26,35.90
2019,10,25,01,27,35.90
2019,10,25,01,28,35.90
2019,10,25,01,29,35.90
2019,10,25,01,30,35.90
2019,10,25,01,31,35.90
2019,10,25,01,32,35.90
2019,10,25,01,33,35.80
2019,10,25,01,34,35.80
2019,10,25,01,35,35.80
2019,10,25,01,36,35.80
2019,10,25,01,37,35.80
2019,10,25,01,38,35.80
2019,10,25,01,39,35.80
2019,10,25,01,40,35.80
2019,10,25,01,41,35.80
2019,10,25,01,42,35.80
2019,10,25,01,43,35.80
2019,10,25,01,44,35.80
2019,10,25,01,45,35.80
2019,10,25,01,46,35.80
2019,10,25,01,47,35.80
2019,10,25,01,48,35.80
2019,10,25,01,49,35.80
2019,10,25,01,50,35.90
2019,10,25,01,51,35.90
2019,10,25,01,52,35.90
2019,10,25,01,53,36.00
2019,10,25,01,54,36.00
2019,10,25,01,55,36.00
2019,10,25,01,56,36.10
2019,10,25,01,57,36.10
2019,10,25,01,58,36.10
2019,10,25,01,59,36.20
2019,10,25,02,00,36.30
2019,10,25,02,01,36.30
2019,10,25,02,02,36.40
2019,10,25,02,03,36.40
2019,10,25,02,04,36.40
2019,10,25,02,05,36.40
2019,10,25,02,06,36.40
2019,10,25,02,07,36.40
2019,10,25,02,08,36.40
2019,10,25,02,09,36.40
2019,10,25,02,10,36.40
2019,10,25,02,11,36.40
2019,10,25,02,12,36.40
2019,10,25,02,13,36.40
2019,10,25,02,14,36.40
2019,10,25,02,15,36.40
2019,10,25,02,16,36.50
2019,10,25,02,17,36.50
2019,10,25,02,18,36.50
2019,10,25,02,19,36.50
2019,10,25,02,20,36.60
2019,10,25,02,21,36.60
2019,10,25,02,22,36.70
2019,10,25,02,23,36.70
2019,10,25,02,24,36.80
2019,10,25,02,25,36.80
2019,10,25,02,26,36.80
2019,10,25,02,27,36.80
2019,10,25,02,28,36.80
2019,10,25,02,29,36.70
2019,10,25,02,30,36.60
2019,10,25,02,31,36.50
2019,10,25,02,32,36.40
2019,10,25,02,33,36.40
2019,10,25,02,34,36.40
2019,10,25,02,35,36.30
2019,10,25,02,36,36.30
2019,10,25,02,37,36.30
2019,10,25,02,38,36.30
2019,10,25,02,39,36.30
2019,10,25,02,40,36.30
2019,10,25,02,41,36.30
2019,10,25,02,42,36.30
2019,10,25,02,43,36.30
2019,10,25,02,44,36.30
2019,10,25,02,45,36.40
2019,10,25,02,46,36.40
2019,10,25,02,47,36.50
2019,10,25,02,48,36.50
2019,10,25,02,49,36.50
2019,10,25,02,50,36.50
2019,10,25,02,51,36.50
2019,10,25,02,52,36.50
2019,10,25,02,53,36.40
2019,10,25,02,54,36.40
2019,10,25,02,55,36.30
2019,10,25,02,56,36.30
2019,10,25,02,57,36.30
2019,10,25,02,58,36.30
2019,10,25,02,59,36.30
2019,10,25,03,00,36.30
2019,10,25,03,01,36.40
2019,10,25,03,02,36.40
2019,10,25,03,03,36.50
2019,10,25,03,04,36.50
2019,10,25,03,05,36.60
2019,10,25,03,06,36.60
2019,10,25,03,07,36.70
2019,10,25,03,08,36.70
2019,10,25,03,09,36.80
2019,10,25,03,10,36.80
2019,10,25,03,11,36.80
2019,10,25,03,12,36.80
2019,10,25,03,13,36.80
2019,10,25,03,14,36.80
2019,10,25,03,15,36.70
2019,10,25,03,16,36.80
2019,10,25,03,17,36.80
2019,10,25,03,18,36.80
2019,10,25,03,19,36.80
2019,10,25,03,20,36.90
2019,10,25,03,21,36.90
2019,10,25,03,22,37.00
2019,10,25,03,23,37.00
2019,10,25,03,24,36.90
2019,10,25,03,25,36.90
2019,10,25,03,26,36.90
2019,10,25,03,27,36.80
2019,10,25,03,28,36.80
2019,10,25,03,29,36.70
2019,10,25,03,30,36.70
2019,10,25,03,31,36.70
2019,10,25,03,32,36.80
2019,10,25,03,33,36.80
2019,10,25,03,34,36.80
2019,10,25,03,35,36.70
2019,10,25,03,36,36.70
2019,10,25,03,37,36.70
2019,10,25,03,38,36.70
2019,10,25,03,39,36.70
2019,10,25,03,40,36.70
2019,10,25,03,41,36.70
2019,10,25,03,42,36.70
2019,10,25,03,43,36.80
2019,10,25,03,44,36.90
2019,10,25,03,45,37.00
2019,10,25,03,46,37.00
2019,10,25,03,47,37.00
2019,10,25,03,48,36.90
2019,10,25,03,49,36.90
2019,10,25,03,50,36.80
2019,10,25,03,51,36.80
2019,10,25,03,52,36.80
2019,10,25,03,53,36.80
2019,10,25,03,54,36.80
2019,10,25,03,55,36.70
2019,10,25,03,56,36.60
2019,10,25,03,57,36.60
2019,10,25,03,58,36.60
2019,10,25,03,59,36.60
2019,10,25,04,00,36.50
2019,10,25,04,01,36.50
2019,10,25,04,02,36.40
2019,10,25,04,03,36.40
2019,10,25,04,04,36.30
2019,10,25,04,05,36.20
2019,10,25,04,06,36.10
2019,10,25,04,07,36.10
2019,10,25,04,08,36.00
2019,10,25,04,09,35.90
2019,10,25,04,10,35.90
2019,10,25,04,11,35.90
2019,10,25,04,12,35.90
2019,10,25,04,13,35.80
2019,10,25,04,14,35.70
2019,10,25,04,15,35.70
2019,10,25,04,16,35.60
2019,10,25,04,17,35.60
2019,10,25,04,18,35.60
2019,10,25,04,19,35.50
2019,10,25,04,20,35.50
2019,10,25,04,21,35.40
2019,10,25,04,22,35.40
2019,10,25,04,23,35.30
2019,10,25,04,24,35.30
2019,10,25,04,25,35.30
2019,10,25,04,26,35.20
2019,10,25,04,27,35.20
2019,10,25,04,28,35.10
2019,10,25,04,29,35.10
2019,10,25,04,30,35.00
2019,10,25,04,31,35.00
2019,10,25,04,32,34.90
2019,10,25,04,33,34.90
2019,10,25,04,34,34.90
2019,10,25,04,35,34.80
2019,10,25,04,36,34.80
2019,10,25,04,37,34.80
2019,10,25,04,38,34.70
2019,10,25,04,39,34.70
2019,10,25,04,40,34.60
2019,10,25,04,41,34.50
2019,10,25,04,42,34.40
2019,10,25,04,43,34.30
2019,10,25,04,44,34.30
2019,10,25,04,45,34.20
2019,10,25,04,46,34.10
2019,10,25,04,47,34.10
2019,10,25,04,48,34.00
2019,10,25,04,49,34.00
2019,10,25,04,50,33.90
2019,10,25,04,51,33.90
2019,10,25,04,52,33.90
2019,10,25,04,53,33.90
2019,10,25,04,54,33.80
2019,10,25,04,55,33.80
2019,10,25,04,56,33.80
2019,10,25,04,57,33.70
2019,10,25,04,58,33.70
2019,10,25,04,59,33.60
2019,10,25,05,00,33.60
2019,10,25,05,01,33.60
2019,10,25,05,02,33.50
2019,10,25,05,03,33.50
2019,10,25,05,04,33.50
2019,10,25,05,05,33.50
2019,10,25,05,06,33.50
2019,10,25,05,07,33.50
2019,10,25,05,08,33.50
2019,10,25,05,09,33.50
2019,10,25,05,10,33.50
2019,10,25,05,11,33.50
2019,10,25,05,12,33.50
2019,10,25,05,13,33.50
2019,10,25,05,14,33.50
2019,10,25,05,15,33.50
2019,10,25,05,16,33.50
2019,10,25,05,17,33.40
2019,10,25,05,18,33.40
2019,10,25,05,19,33.40
2019,10,25,05,20,33.40
2019,10,25,05,21,33.40
2019,10,25,05,22,33.40
2019,10,25,05,23,33.40
2019,10,25,05,24,33.40
2019,10,25,05,25,33.40
2019,10,25,05,26,33.40
2019,10,25,05,27,33.40
2019,10,25,05,28,33.40
2019,10,25,05,29,33.40
2019,10,25,05,30,33.40
2019,10,25,05,31,33.40
2019,10,25,05,32,33.40
2019,10,25,05,33,33.40
2019,10,25,05,34,33.40
2019,10,25,05,35,33.40
2019,10,25,05,36,33.40
2019,10,25,05,37,33.30
2019,10,25,05,38,33.30
2019,10,25,05,39,33.30
2019,10,25,05,40,33.30
2019,10,25,05,41,33.30
2019,10,25,05,42,33.30
2019,10,25,05,43,33.30
2019,10,25,05,44,33.20
2019,10,25,05,45,33.20
2019,10,25,05,46,33.20
2019,10,25,05,47,33.20
2019,10,25,05,48,33.20
2019,10,25,05,49,33.20
2019,10,25,05,50,33.10
2019,10,25,05,51,33.10
2019,10,25,05,52,33.10
2019,10,25,05,53,33.00
2019,10,25,05,54,33.00
2019,10,25,05,55,32.90
2019,10,25,05,56,32.90
2019,10,25,05,57,32.80
2019,10,25,05,58,32.80
2019,10,25,05,59,32.70
2019,10,25,06,00,32.60
2019,10,25,06,01,32.50
2019,10,25,06,02,32.50
2019,10,25,06,03,32.40
2019,10,25,06,04,32.30
2019,10,25,06,05,32.20
2019,10,25,06,06,32.10
2019,10,25,06,07,32.00
2019,10,25,06,08,31.90
2019,10,25,06,09,31.70
2019,10,25,06,10,31.70
2019,10,25,06,11,31.60
2019,10,25,06,12,31.60
2019,10,25,06,13,31.50
2019,10,25,06,14,31.50
2019,10,25,06,15,31.40
2019,10,25,06,16,31.40
2019,10,25,06,17,31.30
2019,10,25,06,18,31.30
2019,10,25,06,19,31.30
2019,10,25,06,20,31.20
2019,10,25,06,21,31.20
2019,10,25,06,22,31.10
2019,10,25,06,23,31.10
2019,10,25,06,24,31.10
2019,10,25,06,25,31.00
2019,10,25,06,26,31.00
2019,10,25,06,27,30.90
2019,10,25,06,28,30.90
2019,10,25,06,29,30.80
2019,10,25,06,30,30.80
2019,10,25,06,31,30.70
2019,10,25,06,32,30.70
2019,10,25,06,33,30.60
2019,10,25,06,34,30.60
2019,10,25,06,35,30.60
2019,10,25,06,36,30.60
2019,10,25,06,37,30.50
2019,10,25,06,38,30.50
2019,10,25,06,39,30.50
2019,10,25,06,40,30.50
2019,10,25,06,41,30.60
2019,10,25,06,42,30.60
2019,10,25,06,43,30.70
2019,10,25,06,44,30.80
2019,10,25,06,45,30.80
2019,10,25,06,46,30.90
2019,10,25,06,47,30.90
2019,10,25,06,48,30.90
2019,10,25,06,49,30.90
2019,10,25,06,50,30.90
2019,10,25,06,51,30.90
2019,10,25,06,52,30.80
2019,10,25,06,53,30.80
2019,10,25,06,54,30.80
2019,10,25,06,55,30.80
2019,10,25,06,56,30.80
2019,10,25,06,57,30.70
2019,10,25,06,58,30.70
2019,10,25,06,59,30.70
2019,10,25,07,00,30.70
2019,10,25,07,01,30.70
2019,10,25,07,02,30.60
2019,10,25,07,03,30.60
2019,10,25,07,04,30.50
2019,10,25,07,05,30.50
2019,10,25,07,06,30.40
2019,10,25,07,07,30.40
2019,10,25,07,08,30.40
2019,10,25,07,09,30.30
2019,10,25,07,10,30.30
2019,10,25,07,11,30.30
2019,10,25,07,12,30.30
2019,10,25,07,13,30.30
2019,10,25,07,14,30.20
2019,10,25,07,15,30.20
2019,10,25,07,16,30.20
2019,10,25,07,17,30.10
2019,10,25,07,18,30.10
2019,10,25,07,19,30.10
2019,10,25,07,20,30.10
2019,10,25,07,21,30.10
2019,10,25,07,22,30.00
2019,10,25,07,23,30.00
2019,10,25,07,24,30.00
2019,10,25,07,25,29.90
2019,10,25,07,26,29.90
2019,10,25,07,27,29.90
2019,10,25,07,28,29.90
2019,10,25,07,29,29.80
2019,10,25,07,30,29.80
2019,10,25,07,31,29.80
2019,10,25,07,32,29.80
2019,10,25,07,33,29.80
2019,10,25,07,34,29.80
2019,10,25,07,35,29.80
2019,10,25,07,36,29.80
2019,10,25,07,37,29.80
2019,10,25,07,38,29.80
2019,10,25,07,39,29.80
2019,10,25,07,40,29.80
2019,10,25,07,41,29.70
2019,10,25,07,42,29.70
2019,10,25,07,43,29.70
2019,10,25,07,44,29.70
2019,10,25,07,45,29.60
2019,10,25,07,46,29.60
2019,10,25,07,47,29.60
2019,10,25,07,48,29.60
2019,10,25,07,49,29.60
2019,10,25,07,50,29.60
2019,10,25,07,51,29.60
2019,10,25,07,52,29.60
2019,10,25,07,53,29.60
2019,10,25,07,54,29.60
2019,10,25,07,55,29.60
2019,10,25,07,56,29.60
2019,10,25,07,57,29.60
2019,10,25,07,58,29.60
2019,10,25,07,59,29.60
2019,10,25,08,00,29.60
2019,10,25,08,01,29.60
2019,10,25,08,02,29.60
2019,10,25,08,03,29.60
2019,10,25,08,04,29.70
2019,10,25,08,05,29.70
2019,10,25,08,06,29.70
2019,10,25,08,07,29.70
2019,10,25,08,08,29.60
2019,10,25,08,09,29.60
2019,10,25,08,10,29.60
2019,10,25,08,11,29.60
2019,10,25,08,12,29.60
2019,10,25,08,13,29.60
2019,10,25,08,14,29.60
2019,10,25,08,15,29.60
2019,10,25,08,16,29.60
2019,10,25,08,17,29.50
2019,10,25,08,18,29.50
2019,10,25,08,19,29.50
2019,10,25,08,20,29.50
2019,10,25,08,21,29.50
2019,10,25,08,22,29.50
2019,10,25,08,23,29.50
2019,10,25,08,24,29.40
2019,10,25,08,25,29.40
2019,10,25,08,26,29.40
2019,10,25,08,27,29.40
2019,10,25,08,28,29.40
2019,10,25,08,29,29.40
2019,10,25,08,30,29.40
2019,10,25,08,31,29.40
2019,10,25,08,32,29.40
2019,10,25,08,33,29.40
2019,10,25,08,34,29.40
2019,10,25,08,35,29.40
2019,10,25,08,36,29.40
2019,10,25,08,37,29.40
2019,10,25,08,38,29.40
2019,10,25,08,39,29.40
2019,10,25,08,40,29.40
2019,10,25,08,41,29.40
2019,10,25,08,42,29.40
2019,10,25,08,43,29.40
2019,10,25,08,44,29.40
2019,10,25,08,45,29.40
2019,10,25,08,46,29.40
2019,10,25,08,47,29.40
2019,10,25,08,48,29.40
2019,10,25,08,49,29.40
2019,10,25,08,50,29.30
2019,10,25,08,51,29.30
2019,10,25,08,52,29.30
2019,10,25,08,53,29.30
2019,10,25,08,54,29.20
2019,10,25,08,55,29.20
2019,10,25,08,56,29.20
2019,10,25,08,57,29.20
2019,10,25,08,58,29.10
2019,10,25,08,59,29.10
2019,10,25,09,00,29.10
2019,10,25,09,01,29.10
2019,10,25,09,02,29.10
2019,10,25,09,03,29.10
2019,10,25,09,04,29.10
2019,10,25,09,05,29.10
2019,10,25,09,06,29.10
2019,10,25,09,07,29.10
2019,10,25,09,08,29.10
2019,10,25,09,09,29.10
2019,10,25,09,10,29.10
2019,10,25,09,11,29.10
2019,10,25,09,12,29.10
2019,10,25,09,13,29.10
2019,10,25,09,14,29.10
2019,10,25,09,15,29.10
2019,10,25,09,16,29.10
2019,10,25,09,17,29.10
2019,10,25,09,18,29.00
2019,10,25,09,19,29.00
2019,10,25,09,20,29.00
2019,10,25,09,21,29.00
2019,10,25,09,22,29.00
2019,10,25,09,23,29.00
2019,10,25,09,24,29.00
2019,10,25,09,25,29.00
2019,10,25,09,26,29.00
2019,10,25,09,27,29.00
2019,10,25,09,28,29.00
2019,10,25,09,29,29.00
2019,10,25,09,30,29.00
2019,10,25,09,31,29.00
2019,10,25,09,32,29.00
2019,10,25,09,33,29.00
2019,10,25,09,34,29.00
2019,10,25,09,35,29.00
2019,10,25,09,36,29.00
2019,10,25,09,37,29.00
2019,10,25,09,38,29.00
2019,10,25,09,39,29.00
2019,10,25,09,40,29.10
2019,10,25,09,41,29.10
2019,10,25,09,42,29.10
2019,10,25,09,43,29.10
2019,10,25,09,44,29.10
2019,10,25,09,45,29.10
2019,10,25,09,46,29.10
2019,10,25,09,47,29.10
2019,10,25,09,48,29.10
2019,10,25,09,49,29.00
2019,10,25,09,50,29.00
2019,10,25,09,51,29.00
2019,10,25,09,52,29.00
2019,10,25,09,53,29.10
2019,10,25,09,54,29.10
2019,10,25,09,55,29.10
2019,10,25,09,56,29.10
2019,10,25,09,57,29.10
2019,10,25,09,58,29.20
2019,10,25,09,59,29.20
2019,10,25,10,00,29.20
2019,10,25,10,01,29.20
2019,10,25,10,02,29.20
2019,10,25,10,03,29.20
2019,10,25,10,04,29.20
2019,10,25,10,05,29.20
2019,10,25,10,06,29.20
2019,10,25,10,07,29.20
2019,10,25,10,08,29.20
2019,10,25,10,09,29.20
2019,10,25,10,10,29.20
2019,10,25,10,11,29.20
2019,10,25,10,12,29.30
2019,10,25,10,13,29.30
2019,10,25,10,14,29.30
2019,10,25,10,15,29.30
2019,10,25,10,16,29.30
2019,10,25,10,17,29.30
2019,10,25,10,18,29.30
2019,10,25,10,19,29.40
2019,10,25,10,20,29.40
2019,10,25,10,21,29.40
2019,10,25,10,22,29.40
2019,10,25,10,23,29.50
2019,10,25,10,24,29.50
2019,10,25,10,25,29.50
2019,10,25,10,26,29.60
2019,10,25,10,27,29.60
2019,10,25,10,28,29.60
2019,10,25,10,29,29.60
2019,10,25,10,30,29.70
2019,10,25,10,31,29.70
2019,10,25,10,32,29.70
2019,10,25,10,33,29.70
2019,10,25,10,34,29.80
2019,10,25,10,35,29.80
2019,10,25,10,36,29.80
2019,10,25,10,37,29.80
2019,10,25,10,38,29.80
2019,10,25,10,39,29.80
2019,10,25,10,40,29.80
2019,10,25,10,41,29.80
2019,10,25,10,42,29.80
2019,10,25,10,43,29.80
2019,10,25,10,44,29.90
2019,10,25,10,45,29.90
2019,10,25,10,46,29.90
2019,10,25,10,47,29.90
2019,10,25,10,48,29.90
2019,10,25,10,49,29.90
2019,10,25,10,50,29.90
2019,10,25,10,51,30.00
2019,10,25,10,52,30.00
2019,10,25,10,53,30.10
2019,10,25,10,54,30.10
2019,10,25,10,55,30.10
2019,10,25,10,56,30.20
2019,10,25,10,57,30.20
2019,10,25,10,58,30.20
2019,10,25,10,59,30.20
2019,10,25,11,00,30.20
2019,10,25,11,01,30.20
2019,10,25,11,02,30.20
2019,10,25,11,03,30.10
2019,10,25,11,04,30.20
2019,10,25,11,05,30.20
2019,10,25,11,06,30.20
2019,10,25,11,07,30.20
2019,10,25,11,08,30.20
2019,10,25,11,09,30.20
2019,10,25,11,10,30.20
2019,10,25,11,11,30.20
2019,10,25,11,12,30.20
2019,10,25,11,13,30.20
2019,10,25,11,14,30.20
2019,10,25,11,15,30.20
2019,10,25,11,16,30.30
2019,10,25,11,17,30.30
2019,10,25,11,18,30.30
2019,10,25,11,19,30.30
2019,10,25,11,20,30.40
2019,10,25,11,21,30.40
2019,10,25,11,22,30.40
2019,10,25,11,23,30.40
2019,10,25,11,24,30.40
2019,10,25,11,25,30.50
2019,10,25,11,26,30.50
2019,10,25,11,27,30.50
2019,10,25,11,28,30.50
2019,10,25,11,29,30.50
2019,10,25,11,30,30.50
2019,10,25,11,31,30.60
2019,10,25,11,32,30.60
2019,10,25,11,33,30.60
2019,10,25,11,34,30.70
2019,10,25,11,35,30.70
2019,10,25,11,36,30.80
2019,10,25,11,37,30.80
2019,10,25,11,38,30.90
2019,10,25,11,39,30.90
2019,10,25,11,40,31.00
2019,10,25,11,41,31.00
2019,10,25,11,42,31.00
2019,10,25,11,43,31.00
2019,10,25,11,44,31.00
2019,10,25,11,45,31.00
2019,10,25,11,46,31.00
2019,10,25,11,47,31.10
2019,10,25,11,48,31.10
2019,10,25,11,49,31.10
2019,10,25,11,50,31.10
2019,10,25,11,51,31.10
2019,10,25,11,52,31.10
2019,10,25,11,53,31.10
2019,10,25,11,54,31.20
2019,10,25,11,55,31.20
2019,10,25,11,56,31.20
2019,10,25,11,57,31.10
2019,10,25,11,58,31.10
2019,10,25,11,59,31.00
2019,10,25,12,00,30.90
2019,10,25,12,01,30.90
2019,10,25,12,02,30.80
2019,10,25,12,03,30.80
2019,10,25,12,04,30.70
2019,10,25,12,05,30.70
2019,10,25,12,06,30.70
2019,10,25,12,07,30.70
2019,10,25,12,08,30.80
2019,10,25,12,09,30.80
2019,10,25,12,10,30.80
2019,10,25,12,11,30.80
2019,10,25,12,12,30.80
2019,10,25,12,13,30.80
2019,10,25,12,14,30.80
2019,10,25,12,15,30.80
2019,10,25,12,16,30.80
2019,10,25,12,17,30.80
2019,10,25,12,18,30.80
2019,10,25,12,19,30.80
2019,10,25,12,20,30.90
2019,10,25,12,21,30.90
2019,10,25,12,22,30.90
2019,10,25,12,23,30.90
2019,10,25,12,24,30.90
2019,10,25,12,25,30.90
2019,10,25,12,26,30.90
2019,10,25,12,27,31.00
2019,10,25,12,28,30.90
2019,10,25,12,29,30.90
2019,10,25,12,30,30.90
2019,10,25,12,31,30.90
2019,10,25,12,32,30.90
2019,10,25,12,33,30.80
2019,10,25,12,34,30.90
2019,10,25,12,35,30.90
2019,10,25,12,36,31.00
2019,10,25,12,37,31.00
2019,10,25,12,38,31.10
2019,10,25,12,39,31.20
2019,10,25,12,40,31.20
2019,10,25,12,41,31.30
2019,10,25,12,42,31.30
2019,10,25,12,43,31.40
2019,10,25,12,44,31.40
2019,10,25,12,45,31.50
2019,10,25,12,46,31.60
2019,10,25,12,47,31.60
2019,10,25,12,48,31.70
2019,10,25,12,49,31.80
2019,10,25,12,50,31.80
2019,10,25,12,51,31.80
2019,10,25,12,52,31.90
2019,10,25,12,53,32.00
2019,10,25,12,54,32.10
2019,10,25,12,55,32.20
2019,10,25,12,56,32.20
2019,10,25,12,57,32.20
2019,10,25,12,58,32.20
2019,10,25,12,59,32.20
2019,10,25,13,00,32.20
2019,10,25,13,01,32.00
2019,10,25,13,02,31.90
2019,10,25,13,03,32.00
2019,10,25,13,04,32.10
2019,10,25,13,05,32.20
2019,10,25,13,06,32.20
2019,10,25,13,07,32.30
2019,10,25,13,08,32.40
2019,10,25,13,09,32.40
2019,10,25,13,10,32.50
2019,10,25,13,11,32.50
2019,10,25,13,12,32.60
2019,10,25,13,13,32.60
2019,10,25,13,14,32.60
2019,10,25,13,15,32.60
2019,10,25,13,16,32.60
2019,10,25,13,17,32.60
2019,10,25,13,18,32.60
2019,10,25,13,19,32.60
2019,10,25,13,20,32.70
2019,10,25,13,21,32.60
2019,10,25,13,22,32.60
2019,10,25,13,23,32.60
2019,10,25,13,24,32.60
2019,10,25,13,25,32.60
2019,10,25,13,26,32.60
2019,10,25,13,27,32.60
2019,10,25,13,28,32.50
2019,10,25,13,29,32.40
2019,10,25,13,30,32.30
2019,10,25,13,31,32.30
2019,10,25,13,32,32.30
2019,10,25,13,33,32.30
2019,10,25,13,34,32.30
2019,10,25,13,35,32.30
2019,10,25,13,36,32.30
2019,10,25,13,37,32.30
2019,10,25,13,38,32.30
2019,10,25,13,39,32.40
2019,10,25,13,40,32.40
2019,10,25,13,41,32.30
2019,10,25,13,42,32.30
2019,10,25,13,43,32.40
2019,10,25,13,44,32.40
2019,10,25,13,45,32.40
2019,10,25,13,46,32.50
2019,10,25,13,47,32.50
2019,10,25,13,48,32.60
2019,10,25,13,49,32.70
2019,10,25,13,50,32.70
2019,10,25,13,51,32.70
2019,10,25,13,52,32.80
2019,10,25,13,53,32.80
2019,10,25,13,54,32.90
2019,10,25,13,55,32.90
2019,10,25,13,56,33.00
2019,10,25,13,57,32.90
2019,10,25,13,58,32.90
2019,10,25,13,59,32.90
2019,10,25,14,00,32.90
2019,10,25,14,01,32.90
2019,10,25,14,02,32.90
2019,10,25,14,03,32.90
2019,10,25,14,04,32.80
2019,10,25,14,05,32.80
2019,10,25,14,06,32.80
2019,10,25,14,07,32.80
2019,10,25,14,08,33.00
2019,10,25,14,09,33.10
2019,10,25,14,10,33.20
2019,10,25,14,11,33.30
2019,10,25,14,12,33.40
2019,10,25,14,13,33.50
2019,10,25,14,14,33.60
2019,10,25,14,15,33.60
2019,10,25,14,16,33.70
2019,10,25,14,17,33.80
2019,10,25,14,18,33.80
2019,10,25,14,19,33.80
2019,10,25,14,20,33.80
2019,10,25,14,21,33.80
2019,10,25,14,22,33.80
2019,10,25,14,23,33.90
2019,10,25,14,24,33.90
2019,10,25,14,25,33.90
2019,10,25,14,26,34.00
2019,10,25,14,27,34.00
2019,10,25,14,28,34.00
2019,10,25,14,29,34.00
2019,10,25,14,30,34.10
2019,10,25,14,31,34.10
2019,10,25,14,32,34.20
2019,10,25,14,33,34.20
2019,10,25,14,34,34.20
2019,10,25,14,35,34.20
2019,10,25,14,36,34.20
2019,10,25,14,37,34.20
2019,10,25,14,38,34.20
2019,10,25,14,39,34.20
2019,10,25,14,40,34.10
2019,10,25,14,41,34.10
2019,10,25,14,42,34.00
2019,10,25,14,43,33.90
2019,10,25,14,44,33.80
2019,10,25,14,45,33.70
2019,10,25,14,46,33.60
2019,10,25,14,47,33.60
2019,10,25,14,48,33.50
2019,10,25,14,49,33.50
2019,10,25,14,50,33.40
2019,10,25,14,51,33.30
2019,10,25,14,52,33.30
2019,10,25,14,53,33.20
2019,10,25,14,54,33.10
2019,10,25,14,55,33.00
2019,10,25,14,56,33.00
2019,10,25,14,57,33.10
2019,10,25,14,58,33.20
2019,10,25,14,59,33.30
2019,10,25,15,00,33.50
2019,10,25,15,01,33.60
2019,10,25,15,02,33.80
2019,10,25,15,03,33.90
2019,10,25,15,04,34.00
2019,10,25,15,05,34.20
2019,10,25,15,06,34.20
2019,10,25,15,07,34.20
2019,10,25,15,08,34.20
2019,10,25,15,09,34.20
2019,10,25,15,10,34.30
2019,10,25,15,11,34.30
2019,10,25,15,12,34.30
2019,10,25,15,13,34.30
2019,10,25,15,14,34.20
2019,10,25,15,15,34.20
2019,10,25,15,16,34.20
2019,10,25,15,17,34.20
2019,10,25,15,18,34.10
2019,10,25,15,19,34.10
2019,10,25,15,20,34.00
2019,10,25,15,21,33.90
2019,10,25,15,22,33.90
2019,10,25,15,23,33.90
2019,10,25,15,24,33.80
2019,10,25,15,25,33.70
2019,10,25,15,26,33.70
2019,10,25,15,27,33.60
2019,10,25,15,28,33.50
2019,10,25,15,29,33.40
2019,10,25,15,30,33.30
2019,10,25,15,31,33.20
2019,10,25,15,32,33.20
2019,10,25,15,33,33.20
2019,10,25,15,34,33.20
2019,10,25,15,35,33.20
2019,10,25,15,36,33.10
2019,10,25,15,37,33.10
2019,10,25,15,38,33.00
2019,10,25,15,39,32.90
2019,10,25,15,40,32.80
2019,10,25,15,41,32.70
2019,10,25,15,42,32.60
2019,10,25,15,43,32.40
2019,10,25,15,44,32.30
2019,10,25,15,45,32.20
2019,10,25,15,46,32.10
2019,10,25,15,47,32.00
2019,10,25,15,48,31.90
2019,10,25,15,49,31.80
2019,10,25,15,50,31.80
2019,10,25,15,51,31.70
2019,10,25,15,52,31.70
2019,10,25,15,53,31.70
2019,10,25,15,54,31.80
2019,10,25,15,55,31.80
2019,10,25,15,56,31.80
2019,10,25,15,57,31.80
2019,10,25,15,58,31.90
2019,10,25,15,59,31.90
2019,10,25,16,00,31.90
2019,10,25,16,01,32.00
2019,10,25,16,02,32.00
2019,10,25,16,03,32.00
2019,10,25,16,04,32.00
2019,10,25,16,05,32.00
2019,10,25,16,06,32.00
2019,10,25,16,07,32.00
2019,10,25,16,08,32.10
2019,10,25,16,09,32.10
2019,10,25,16,10,32.10
2019,10,25,16,11,32.10
2019,10,25,16,12,32.20
2019,10,25,16,13,32.20
2019,10,25,16,14,32.20
2019,10,25,16,15,32.20
2019,10,25,16,16,32.30
2019,10,25,16,17,32.30
2019,10,25,16,18,32.20
2019,10,25,16,19,32.20
2019,10,25,16,20,32.30
2019,10,25,16,21,32.30
2019,10,25,16,22,32.30
2019,10,25,16,23,32.40
2019,10,25,16,24,32.50
2019,10,25,16,25,32.50
2019,10,25,16,26,32.60
2019,10,25,16,27,32.60
2019,10,25,16,28,32.60
2019,10,25,16,29,32.70
2019,10,25,16,30,32.70
2019,10,25,16,31,32.80
2019,10,25,16,32,32.80
2019,10,25,16,33,32.80
2019,10,25,16,34,32.80
2019,10,25,16,35,32.80
2019,10,25,16,36,32.70
2019,10,25,16,37,32.70
2019,10,25,16,38,32.60
2019,10,25,16,39,32.60
2019,10,25,16,40,32.60
2019,10,25,16,41,32.60
2019,10,25,16,42,32.60
2019,10,25,16,43,32.60
2019,10,25,16,44,32.50
2019,10,25,16,45,32.40
2019,10,25,16,46,32.40
2019,10,25,16,47,32.30
2019,10,25,16,48,32.30
2019,10,25,16,49,32.30
2019,10,25,16,50,32.20
2019,10,25,16,51,32.20
2019,10,25,16,52,32.10
2019,10,25,16,53,32.10
2019,10,25,16,54,32.10
2019,10,25,16,55,32.10
2019,10,25,16,56,32.10
2019,10,25,16,57,32.10
2019,10,25,16,58,32.00
2019,10,25,16,59,32.00
2019,10,25,17,00,31.90
2019,10,25,17,01,31.90
2019,10,25,17,02,31.80
2019,10,25,17,03,31.80
2019,10,25,17,04,31.70
2019,10,25,17,05,31.60
2019,10,25,17,06,31.60
2019,10,25,17,07,31.50
2019,10,25,17,08,31.50
2019,10,25,17,09,31.40
2019,10,25,17,10,31.40
2019,10,25,17,11,31.30
2019,10,25,17,12,31.30
2019,10,25,17,13,31.30
2019,10,25,17,14,31.20
2019,10,25,17,15,31.20
2019,10,25,17,16,31.10
2019,10,25,17,17,31.00
2019,10,25,17,18,30.90
2019,10,25,17,19,30.80